Weather in Pokrovskoye

Russia / Sverdlovsk Oblast     57˚21′24″N   61˚41′33″E
temp.,
°C
wind,
m/s
gust,
m/s
humid.,
%
clouds,
%
prec.,
mm/h
press.,
hPa
HPBL,
m
17 january, sun
sun1723:00−10˚sw3129494 0.3 1002389
02:00−11˚wsw4128823 0.0 1004522
05:00−14˚sw3109241 0.0 1004209
08:00−13˚ssw3109261 0.0 1002267
11:00−10˚sw4118980 0.0 1000595
14:00−8˚sw4991100 0.2 999861
17:00−10˚w61373100 0.5 10001105
20:00−13˚w5138482 0.0 1004783
18 january, mon
mon1823:00−15˚w5138776 0.0 1007576
02:00−16˚w5138866 0.0 1010592
05:00−17˚w5128862 0.0 1013404
08:00−20˚w511880 0.0 1015310
11:00−19˚wnw49860 0.0 1018260
14:00−16˚w47860 0.0 1018261
17:00−18˚wsw39900 0.0 1019242
20:00−20˚w38903 0.0 1019176
19 january, tue
tue1923:00−20˚w36909 0.0 1019130
02:00−21˚w239052 0.0 102059
05:00−22˚wnw128959 0.0 102020
08:00−22˚wnw1190100 0.0 102120
11:00−20˚e1189100 0.0 102137
14:00−18˚ese2390100 0.0 1020193
17:00−19˚ese2596100 0.0 1020169
20:00−18˚ese3693100 0.0 1020260
20 january, wed
wed2023:00−18˚ese3794100 0.0 1019296
02:00−18˚ese3893100 0.0 1018348
05:00−18˚e3795100 0.1 1017344
08:00−18˚e3796100 0.4 1015402
11:00−17˚ese3696100 1.4 1014507
14:00−17˚se2495100 1.1 1012423
17:00−17˚se1398100 2.1 1011156
20:00−17˚s2398100 0.5 1011113
21 january, thu
thu2123:00−16˚wsw4994100 0.6 1011490
02:00−21˚sse1299100 0.1 101570
05:00−21˚wsw1299100 0.3 101469
08:00−21˚w2597100 0.1 1013241
11:00−21˚wnw3597100 0.3 1013329
14:00−20˚nw3592100 0.2 1014565
17:00−22˚nnw2497100 0.3 1014142
20:00−25˚nnw239992 0.0 101655